Location: Cumonville
(50.2396°N, 2.0398°E)
Time: 04:26:22
(UTC+00:00)

Daily predictions for brighter satellites

Satellite Brightness Start Highest point End
(mag) Time Altitude Azimuth Time Altitude Azimuth Time Altitude Azimuth
Cosmos 1464 Rocket 4.2 00:05:13 50° SW 00:06:35 62° WNW 00:12:43 10° N
Cosmos 1025 Rocket 3.3 00:02:42 10° NNW 00:06:21 62° NNW 00:06:21 62° NNW
USA 267 4.0 00:01:09 10° ENE 00:07:27 52° N 00:13:45 10° W
Okean 1 Rocket 4.2 00:09:30 33° E 00:09:30 33° E 00:13:06 10° NNE
SJ 16-02 2.8 00:09:53 27° E 00:09:53 27° E 00:12:58 10° NE
Okean 2 Rocket 3.2 00:10:41 75° NNW 00:10:41 75° NNW 00:14:52 10° N
Cosmos 1538 Rocket 4.1 00:06:08 10° NNW 00:11:04 62° W 00:11:04 62° W
SL-16 R/B 2.2 00:06:56 10° NNW 00:12:41 76° ENE 00:13:48 58° SE
Nadezhda 4 Rocket 4.1 00:08:33 10° NNW 00:14:44 62° W 00:15:44 54° SW
Cosmos 1975 4.5 00:15:44 26° WNW 00:15:44 26° WNW 00:19:03 10° NNW
Cosmos 2263 Rocket 4.4 00:14:58 11° ESE 00:15:53 12° E 00:17:48 10° ENE
Meteor 2-13 Rocket 4.4 00:10:00 10° N 00:16:10 84° E 00:17:19 61° SSE
Cosmos 158 Rocket 4.1 00:23:36 10° NNW 00:29:00 73° ENE 00:29:59 58° SE
Cosmos 2297 Rocket 2.1 00:28:55 66° SW 00:29:44 82° WNW 00:35:26 10° NNE
Cosmos 2344 4.4 00:22:29 10° NW 00:31:50 64° SW 00:38:10 33° SSE
Cosmos 1092 Rocket 3.9 00:29:20 10° NNW 00:35:31 68° W 00:36:34 57° SW
Cosmos 2112 Rocket 4.1 00:30:36 10° NNW 00:35:50 70° ENE 00:36:47 56° ESE
In-Cosmos 22 4.3 00:30:42 10° NNW 00:36:07 55° W 00:36:23 54° WSW
USA 229 DEB 4.3 00:36:45 36° SE 00:37:37 38° ESE 00:43:49 10° NE
USA 229 4.3 00:36:53 36° SE 00:37:44 38° ESE 00:43:54 10° NE
Cosmos 2034 Rocket 4.5 00:37:47 42° WSW 00:39:21 50° WNW 00:45:33 10° N
Cosmos 2237 Rocket 3.3 00:36:55 10° NW 00:41:12 28° W 00:41:12 28° W
Cosmos 2219 3.5 00:41:47 48° WSW 00:43:03 60° NW 00:48:39 10° NNE
Cosmos 2151 Rocket 3.9 00:43:30 55° WNW 00:43:30 55° WNW 00:47:37 10° N
Meteor 1-15 Rocket 4.1 00:43:07 66° S 00:43:56 83° E 00:49:32 10° NNE
Cosmos 1898 Rocket 4.2 00:43:57 39° ESE 00:44:24 40° ESE 00:49:14 10° NE
Cosmos 1892 Rocket 4.3 00:42:59 10° N 00:47:17 46° ENE 00:47:51 43° E
Meteor 1-24 Rocket 3.8 00:42:26 10° N 00:47:50 63° ENE 00:49:06 48° SE
NOSS 3-1 (A) 4.3 00:48:36 29° SE 00:49:09 30° ESE 00:54:28 10° NE
Meteor 1-29 4.2 00:46:38 10° NNE 00:49:04 39° NE 00:49:04 39° NE
CZ-4 R/B 3.9 00:45:48 10° N 00:50:49 72° WNW 00:51:18 66° WSW
Cosmos 1674 3.7 00:47:17 10° NNW 00:49:53 40° NW 00:49:53 40° NW
Lacrosse 4 Rocket 4.3 00:49:26 10° NW 00:50:59 12° NNW 00:52:31 10° N
Cosmos 1680 Rocket 3.3 00:45:48 10° NNW 00:51:03 80° WSW 00:51:28 74° SSW
Spot 1 4.3 00:52:54 55° E 00:53:04 56° ENE 00:57:04 10° N
Cosmos 1603 4.5 00:47:34 10° NNW 00:53:11 50° NE 00:57:17 18° ESE
Cosmos 1461 3.1 00:55:29 74° E 00:55:29 74° E 00:59:50 10° NE
ATLAS 3B R/B 4.5 00:56:12 10° WNW 01:01:49 28° NNW 01:07:33 10° NE
DELTA 2 DEB (DPAF) 4.3 01:05:02 61° ESE 01:05:36 68° ENE 01:10:02 10° N
PSLV R/B 4.3 01:01:13 10° N 01:05:44 47° WNW 01:06:13 45° W
CZ-2D R/B 3.0 01:01:12 10° NNE 01:06:25 42° E 01:08:00 34° SE
Cosmos 1340 Rocket 4.2 01:07:07 29° E 01:07:18 29° E 01:10:46 10° NNE
Cosmos 1766 3.5 01:11:18 66° NNW 01:11:18 66° NNW 01:14:44 10° N
Cosmos 1943 3.7 01:06:15 10° NNW 01:11:49 56° NE 01:16:10 16° SE
SL-16 R/B 2.6 01:09:25 34° SSE 01:12:19 76° ENE 01:18:34 10° NNW
Cosmos 1733 3.4 01:14:34 69° N 01:14:34 69° N 01:18:01 10° N
Cosmos 1626 2.6 01:12:16 10° NNW 01:15:17 55° NNW 01:15:17 55° NNW
Cosmos 1655 Rocket 3.9 01:09:52 10° N 01:16:10 85° E 01:18:27 42° SSE
Cosmos 2292 Rocket 4.5 01:12:37 10° N 01:19:55 79° E 01:22:07 41° SSE
Cosmos 2227 Rocket 2.9 01:18:31 33° W 01:20:28 45° NW 01:25:56 10° NNE
Cosmos 1544 Rocket 4.4 01:22:37 37° SE 01:23:33 42° E 01:27:46 10° NNE
Meteor 2-5 Rocket 3.8 01:18:48 10° NNW 01:24:15 54° W 01:25:04 50° SW
Cosmos 1470 3.3 01:24:19 48° ESE 01:24:34 49° E 01:28:26 10° NNE
Cosmos 1953 4.2 01:23:54 19° ESE 01:25:10 23° E 01:28:22 10° NE
NPP 4.2 01:20:03 10° NNE 01:25:18 50° E 01:27:04 36° SSE
Helios 1B rocket 3.2 01:22:04 10° N 01:25:54 39° WNW 01:25:58 39° WNW
Meteor 1-22 Rocket 4.0 01:25:04 56° S 01:26:15 90° NE 01:31:41 10° NNE
Cosmos 2279 Rocket 4.0 01:29:43 45° SW 01:31:35 68° WNW 01:37:48 10° N
Cosmos 1805 4.2 01:32:08 37° WNW 01:32:08 37° WNW 01:35:32 10° N
Resurs 1-4 Rocket 2.1 01:34:40 10° NNE 01:39:59 77° ESE 01:41:36 46° S
Exosat Rocket 4.5 01:36:53 33° S 01:40:24 64° ESE 01:46:15 10° NNE
Cosmos 2180 Rocket 4.4 01:39:58 43° SSW 01:42:01 71° WNW 01:48:11 10° N
Cosmos 1602 Rocket 4.5 01:38:02 10° N 01:42:14 45° ENE 01:44:25 24° SE
Cosmos 2098 Rocket 3.8 01:38:08 10° NNW 01:43:41 80° W 01:46:32 36° S
NOSS 2-3 (E) 3.7 01:44:49 54° S 01:45:32 63° SE 01:50:37 10° NE
Cosmos 2227 4.4 01:44:00 40° S 01:46:00 62° ESE 01:51:42 10° NE
Cosmos 2082 4.3 01:44:36 33° WSW 01:46:41 47° NW 01:52:08 10° NNE
Okean 1 Rocket 4.2 01:46:41 28° W 01:47:05 28° WNW 01:50:54 10° N
SJ 16-02 2.2 01:46:52 34° W 01:47:39 37° WNW 01:51:47 10° N
USA 267 4.0 01:43:37 10° E 01:49:56 54° NNE 01:56:16 10° WNW
NOSS 3-1 (C) 3.3 01:48:09 40° SW 01:50:20 81° NW 01:56:59 10° NE
SL-14 R/B 4.3 01:49:37 10° NNW 01:52:33 31° WNW 01:52:33 31° WNW
Cosmos 1048 Rocket 4.5 01:50:10 10° NNW 01:55:16 58° ENE 02:00:23 10° SE
SL-16 R/B 3.6 01:52:04 10° NW 01:55:38 21° W 01:55:38 21° W
Cosmos 2263 Rocket 2.2 01:56:40 39° S 01:58:45 70° ESE 02:04:18 10° NNE
CZ-4C R/B 3.8 02:05:30 38° WNW 02:05:30 38° WNW 02:08:31 10° NNW
Cosmos 372 Rocket 4.1 02:04:36 36° S 02:06:44 68° ESE 02:11:58 10° NNE
Okean 1-7 Rocket 4.1 02:04:08 10° NNW 02:08:15 39° W 02:08:38 38° WSW
Cosmos 1937 Rocket 3.7 02:07:18 38° SW 02:09:14 62° WNW 02:14:32 10° NNE
Cosmos 1809 Rocket 4.4 02:03:26 10° NNW 02:09:34 79° W 02:13:15 26° S
Meteor 1-28 Rocket 4.4 02:06:33 13° SE 02:09:37 41° ENE 02:13:14 10° N
NOSS 2-3 (D) 3.6 02:08:30 46° SW 02:09:51 87° SE 02:15:05 10° NE
COBE Rocket 3.6 02:08:32 38° S 02:10:17 74° W 02:14:57 10° NNW
SL-08 R/B 4.1 02:05:42 10° SE 02:10:32 55° ENE 02:15:22 10° N
ADEOS II 2.4 02:06:22 10° NNE 02:11:35 61° E 02:14:31 26° S
Cosmos 1626 Rocket 3.4 02:07:24 10° NNW 02:11:44 73° W 02:13:03 43° S
Cosmos 1455 Rocket 3.5 02:12:38 39° WSW 02:13:37 47° WNW 02:17:58 10° N
CZ-4B R/B 3.3 02:09:48 10° NNE 02:14:35 79° ESE 02:16:40 34° S
Cosmos 2297 Rocket 4.1 02:10:42 11° W 02:14:41 21° NW 02:18:59 10° NNE
ATLAS CENTAUR R/B 2.3 02:13:46 31° SSE 02:14:50 37° ESE 02:18:28 10° NE
Cosmos 2285 Rocket 4.5 02:10:59 23° S 02:14:51 54° ESE 02:20:58 10° NNE
Cosmos 1726 2.0 02:14:19 54° S 02:15:05 84° E 02:18:46 10° NNE
Cosmos 2266 Rocket 4.4 02:14:20 10° NNW 02:20:20 46° W 02:22:57 30° SW
Cosmos 1844 Rocket 4.3 02:17:42 10° SSE 02:22:06 26° ESE 02:26:39 10° NE
GEOS 3 Rocket 3.7 02:20:10 10° NE 02:25:37 90° WNW 02:28:25 30° SW
Cosmos 1898 Rocket 4.4 02:24:13 25° WSW 02:26:31 36° NW 02:31:20 10° NNE
Meteor 1-21 Rocket 4.1 02:22:38 10° NNW 02:28:09 67° W 02:31:40 23° S
Meteor 2-21 4.4 02:22:08 10° NNW 02:28:10 67° W 02:32:12 22° S
USA 229 DEB 3.9 02:24:11 24° WSW 02:28:15 63° NW 02:35:13 10° NE
USA 229 3.9 02:24:18 24° WSW 02:28:22 63° NW 02:35:19 10° NE
Cosmos 468 4.4 02:23:05 10° NNW 02:28:22 76° WSW 02:33:36 10° SSE
CBERS-1 4.0 02:23:13 10° NNE 02:28:23 90° E 02:31:10 28° SSW
Meteor 2-10 4.2 02:27:12 29° SSW 02:30:12 78° WNW 02:35:58 10° N
Cosmos 2084 3.8 02:28:47 34° SSW 02:30:30 58° SE 02:34:53 10° NE
ARIANE 5 R/B 3.3 02:26:50 10° NNE 02:31:57 50° E 02:36:11 15° S
Cosmos 1244 Rocket 4.5 02:27:23 10° N 02:33:47 84° W 02:39:39 12° S
Cosmos 1758 Rocket 3.6 02:30:12 10° N 02:34:33 77° ENE 02:38:14 14° SSE
Cosmos 1603 4.4 02:32:02 10° NW 02:37:08 34° WSW 02:39:05 27° SW
NOSS 2-3 (C) 4.1 02:35:34 28° WSW 02:37:49 61° NW 02:43:09 10° NE
NOSS 3-1 (A) 3.6 02:36:02 25° WSW 02:39:28 66° NW 02:46:09 10° NE
Cosmos 494 Rocket 3.9 02:38:31 10° NNW 02:43:43 90° NE 02:48:55 10° SSE
Cosmos 1340 Rocket 4.0 02:42:43 24° W 02:43:45 27° WNW 02:47:09 10° N
Cosmos 2150 Rocket 4.0 02:42:28 25° SSW 02:45:31 88° WNW 02:50:51 10° NNE
Cosmos 1758 4.5 02:44:28 25° W 02:45:34 29° WNW 02:49:06 10° N
CZ-2D R/B 3.0 02:41:25 10° N 02:46:24 36° WNW 02:49:19 21° WSW
H-2A R/B 3.3 02:44:38 10° SE 02:48:29 41° ENE 02:52:22 10° N
Cosmos 1703 3.2 02:46:09 10° NNW 02:50:07 67° W 02:52:42 20° S
Cosmos 1825 Rocket 3.4 02:48:46 10° N 02:53:07 87° W 02:57:27 10° S
Cosmos 1943 4.0 02:50:48 10° NW 02:55:32 29° WSW 02:57:52 21° SW
SL-16 R/B 3.8 02:54:31 19° WSW 02:56:33 23° W 03:01:21 10° NW
Cosmos 1125 Rocket 3.6 02:54:00 19° SSW 02:57:47 80° ESE 03:03:06 10° NNE
USA 215 3.9 02:52:29 10° ENE 02:58:44 45° SE 03:03:50 15° SSW
IRS-1C 4.1 02:54:21 10° NNE 02:59:43 79° WNW 03:03:50 17° SSW
Cosmos 1953 3.1 02:59:36 25° WSW 03:01:21 37° WNW 03:05:10 10° N
IRS-1D 4.0 02:57:54 10° N 03:02:48 47° WNW 03:06:07 20° SW
Cosmos 1328 3.9 03:00:01 10° NNW 03:03:56 56° W 03:07:01 16° S
Cosmos 1953 Rocket 3.6 03:00:05 10° N 03:04:36 84° ENE 03:09:04 10° S
Cosmos 2227 Rocket 4.5 03:03:03 10° WNW 03:06:05 14° NNW 03:09:07 10° N
CZ-4B R/B 4.5 03:04:25 10° ESE 03:06:23 16° ENE 03:08:21 10° NNE
CZ-2D R/B 3.5 03:05:17 10° NNE 03:09:18 74° ESE 03:12:51 13° S
Resurs 1-4 Rocket 3.7 03:15:27 10° N 03:19:15 21° NW 03:22:40 11° W
USA 238 DEB 4.3 03:12:18 10° NW 03:19:24 65° NE 03:26:49 10° ESE
USA 238 4.4 03:12:24 10° NW 03:19:30 65° NE 03:26:54 10° ESE
Meteor 2-8 Rocket 4.4 03:15:17 11° SSW 03:21:14 73° WNW 03:27:22 10° N
NOSS 8 (F) 4.2 03:20:18 21° SW 03:22:14 71° NW 03:25:16 10° NE
Cosmos 1606 Rocket 3.6 03:19:25 13° SSW 03:23:24 69° WNW 03:27:52 10° N
Atlas Centaur 2 4.3 03:20:39 10° SSW 03:23:30 14° S 03:26:48 10° SSE
CENTAUR R/B 3.9 03:17:53 10° NW 03:25:28 56° NE 03:33:59 10° ESE
NOSS 2-2 (E) 3.9 03:22:45 13° SSW 03:25:42 47° SE 03:29:38 10° NE
NOSS 2-2 (D) 4.3 03:23:29 11° S 03:26:39 38° ESE 03:30:19 10° NE
IDEFIX/ARIANE 42P 2.6 03:23:08 10° NNE 03:28:23 83° WNW 03:33:37 10° SSW
USA 267 3.3 03:26:10 10° ESE 03:32:44 89° SSW 03:39:20 10° WNW
Cosmos 1908 4.2 03:31:23 15° SW 03:34:05 32° WNW 03:37:39 10° N
MSX 4.0 03:28:27 10° NNE 03:34:16 80° ESE 03:40:03 10° SSW
COSMOS 2406 4.1 03:30:29 10° NNW 03:36:06 55° NE 03:41:39 10° SE
Cosmos 1726 Rocket 3.7 03:33:41 10° SSW 03:38:06 62° WNW 03:42:32 10° N
Cosmos 2228 3.5 03:36:23 11° SSW 03:40:23 46° WNW 03:44:40 10° N
Cosmos 2315 Rocket 4.4 03:36:00 10° S 03:42:17 71° E 03:48:40 10° NNE
ADEOS Rocket 4.4 03:35:35 10° SE 03:43:09 58° ENE 03:50:36 10° N
Cosmos 2263 Rocket 3.5 03:38:29 10° WSW 03:43:12 27° NW 03:47:57 10° NNE
Cosmos 1844 3.9 03:37:59 10° SSW 03:43:46 82° ESE 03:49:33 10° NNE
Cosmos 2084 Rocket 4.3 03:43:31 10° NW 03:47:54 57° NE 03:52:21 10° ESE
CZ-2C R/B 2.7 03:44:10 10° N 03:47:59 67° WNW 03:51:42 10° SSW
Cosmos 1455 4.2 03:47:00 10° SSE 03:50:25 30° E 03:53:50 10° NNE
ADEOS II 3.4 03:46:42 10° N 03:50:55 25° WNW 03:55:07 10° WSW
Cosmos 1356 Rocket 3.8 03:46:57 10° SSW 03:50:56 46° WNW 03:54:55 10° N
Spot 4 Rocket 4.3 03:47:36 10° N 03:52:38 52° WNW 03:57:37 10° SW
ATLAS CENTAUR R/B 2.3 03:50:03 10° WSW 03:53:45 34° NW 03:57:19 10° NNE
Cosmos 1300 2.9 03:50:19 10° SSW 03:54:03 53° WNW 03:57:49 10° N
ERS-2 2.4 03:53:31 10° S 03:57:02 47° W 04:00:36 10° NNW
CZ-4C R/B 3.7 03:56:59 10° SSW 03:59:59 31° W 04:03:06 10° NNW
COSMOS 2441 4.4 03:58:24 10° N 04:03:11 66° WNW 04:07:58 10° SSW
Cosmos 2278 Rocket 3.8 03:59:49 10° S 04:04:54 35° ESE 04:10:00 10° NE
Cosmos 1076 Rocket 3.9 04:01:10 10° N 04:05:32 73° E 04:09:54 10° SSE
Cosmos 1844 Rocket 2.9 04:00:06 10° SW 04:05:36 61° WNW 04:11:09 10° NNE
Cosmos 2251 Rocket 3.8 04:01:13 10° NNW 04:06:38 81° ENE 04:12:01 10° SSE
SAR-Lupe-4 3.7 04:03:24 10° SSE 04:06:59 84° ENE 04:10:36 10° NNW
Cosmos 1833 Rocket 3.2 04:02:51 10° NNW 04:08:31 67° ENE 04:14:08 10° SE
NOSS 2-2 (C) 3.2 04:06:20 10° SW 04:09:54 86° NW 04:14:03 10° NE
NOSS 3-2 (A) 4.1 04:02:48 10° NW 04:10:12 77° SW 04:18:35 10° SSE
Cosmos 1812 Rocket 4.3 04:06:10 10° S 04:10:25 58° E 04:14:43 10° NNE
ARIANE 5 R/B 3.7 04:06:22 10° N 04:10:50 29° WNW 04:15:17 10° WSW
Lacrosse 5 rocket 3.5 04:07:14 10° S 04:10:53 24° SE 04:14:33 10° ENE
USA 281 3.9 04:04:46 10° NNE 04:11:14 56° ESE 04:17:39 10° S
